Location: Ceske Budejovice
(48.9830°N, 14.4670°E)
Time: 05:53:37
(UTC+02:00)

ISS - Pass Details

Date: 31 March 2019
Orbit: 408 x 410 km, 51.6° (Epoch: 23 April)

Event Time Altitude Azimuth Distance (km) Brightness Sun altitude
Rises 21:00:02 0° 285° (WNW) 2,338 1.8 -14.8°
Reaches altitude 10° 21:02:09 10° 290° (WNW) 1,475 0.4 -15.1°
Maximum altitude 21:05:26 60° 11° (N) 472 -3.5 -15.6°
Enters shadow 21:06:40 33° 78° (ENE) 711 -3.0 -15.8°
